W6DSP Weather Reports


Display with metric or nautical units.
time (UTC)temp
F
wind
direction
speed
MPH
gust
MPH
rain 1hr
in
rain 24hr
in
rain mn
in
humidity
%
barometer
mb
20260906034802 72 111 0.0 3.0 0.00 0.13 0.13 87 1015.2
20260906024731 71 37 0.0 0.0 0.00 0.13 0.13 88 1014.8
20260906023533 72 37 0.0 2.0 0.00 0.13 0.13 88 1014.8
20260906014719 73 34 0.0 2.0 0.00 0.13 0.13 86 1014.4
20260906012246 74 63 1.0 9.0 0.00 0.13 0.13 85 1014.2
20260906011104 74 355 1.0 9.0 0.00 0.13 0.13 85 1014.1
20260906003354 75 69 1.0 11.0 0.00 0.13 0.13 85 1013.4
20260906001036 77 99 1.0 7.0 0.00 0.13 0.13 85 1013.3
20260905233408 78 26 0.0 7.0 0.00 0.13 0.13 83 1013.4
20260905232222 79 81 0.0 4.0 0.00 0.13 0.13 83 1012.9
20260905225747 79 58 3.0 12.0 0.00 0.13 0.13 81 1012.7
20260905222054 81 21 0.0 6.0 0.00 0.13 0.13 80 1012.2
20260905220901 82 30 3.0 11.0 0.00 0.13 0.13 77 1012.0
20260905213250 84 69 1.0 6.0 0.00 0.13 0.13 76 1011.6
20260905210841 85 38 1.0 0.0 0.00 0.13 0.13 79 1012.0
20260905205704 84 27 3.0 7.0 0.00 0.13 0.13 78 1012.0
20260905200808 83 15 1.0 9.0 0.00 0.13 0.13 80 1012.7
20260905194416 82 25 0.0 8.0 0.00 0.13 0.13 80 1012.7
20260905192006 84 349 0.0 1.0 0.00 0.13 0.13 80 1013.0
20260905181919 84 342 1.0 6.0 0.00 0.13 0.13 78 1013.3
20260905180648 83 316 1.0 11.0 0.00 0.13 0.13 77 1013.2
20260905174238 81 355 3.0 6.0 0.00 0.13 0.13 80 1013.5
20260905173030 81 225 1.0 6.0 0.00 0.13 0.13 83 1013.5
20260905170659 80 128 1.0 7.0 0.00 0.13 0.13 82 1013.6
20260905164254 79 173 0.0 7.0 0.00 0.13 0.13 82 1013.8
20260905163043 78 163 1.0 6.0 0.00 0.13 0.13 82 1013.9
20260905160709 75 344 0.0 2.0 0.00 0.13 0.13 86 1014.2
20260905154313 75 165 0.0 2.0 0.00 0.13 0.13 87 1014.2
20260905153120 75 240 0.0 3.0 0.00 0.13 0.13 87 1014.0
20260905151912 75 281 1.0 8.0 0.00 0.13 0.13 86 1014.1
20260905145435 75 108 0.0 8.0 0.00 0.13 0.13 88 1013.8
20260905143118 73 257 0.0 7.0 0.00 0.13 0.13 91 1013.8
20260905134252 71 122 1.0 11.0 0.00 0.13 0.13 92 1013.5
20260905133047 70 114 1.0 11.0 0.00 0.13 0.13 92 1013.4
20260905131916 70 248 1.0 9.0 0.09 0.13 0.13 92 1013.1
20260905130650 70 198 3.0 15.0 0.66 0.06 0.09 92 1013.8
20260905124304 70 239 1.0 8.0 0.00 0.04 0.04 92 1013.0
20260905123028 70 107 1.0 6.0 0.00 0.04 0.04 92 1013.1
20260905121818 70 138 1.0 6.0 0.00 0.04 0.04 92 1013.1
20260905112907 70 91 0.0 3.0 0.00 0.04 0.04 92 1013.3
20260905111656 70 68 1.0 4.0 0.00 0.04 0.04 92 1013.0
20260905110511 70 298 0.0 7.0 0.00 0.04 0.04 92 1012.8
20260905100436 70 158 0.0 4.0 0.00 0.04 0.04 91 1013.3
20260905095253 70 166 0.0 6.0 0.00 0.04 0.04 91 1013.2
20260905094104 70 111 1.0 6.0 0.00 0.04 0.04 91 1013.3
20260905092915 70 143 1.0 6.0 0.00 0.04 0.04 90 1013.6
20260905084050 73 173 1.0 11.0 0.00 0.00 0.00 90 1013.4
20260905075234 75 36 1.0 9.0 0.00 0.00 0.00 93 1012.9
20260905074041 75 144 0.0 3.0 0.00 0.00 0.00 93 1012.1
20260905065248 74 144 0.0 1.0 0.00 0.00 0.00 93 1011.9
20260905064014 75 144 0.0 1.0 0.00 0.00 0.00 93 1011.7
20260905062838 74 144 0.0 0.0 0.00 0.00 0.00 93 1011.7
20260905054103 76 144 0.0 3.0 0.00 0.00 0.00 93 1012.4
20260905051721 76 145 0.0 3.0 0.00 0.00 0.00 93 1012.4
20260905045357 76 145 0.0 1.0 0.00 0.00 0.00 93 1012.6
20260905042906 76 145 0.0 1.0 0.00 0.00 0.00 93 1012.9
20260905041652 76 145 0.0 0.0 0.00 0.00 0.00 93 1013.1